User: anonymous   Login
Location: Unspecified
(0.0000°N, 0.0000°E)
Time: 23:49:06
(UTC+00:00)
Language:

DIDO 2 - Orbit

View from above orbital plane
View from above orbital plane
View from above satellite
View from above satellite

Ground track
Ground track

The orbit data is extracted from the following two-line orbital elements,

1 42000U 17008BE  17348.90238233 +.00001096 +00000-0 +49913-4 0  9991
2 42000 097.4743 049.5324 0007394 304.6815 055.3724 15.22795327045355
Epoch (UTC): 14 December 2017 21:39:25
Eccentricity: 0.0007394
inclination: 97.4743°
perigee height: 492 km
apogee height: 502 km
right ascension of ascending node: 49.5324°
argument of perigee: 304.6815°
revolutions per day: 15.22795327
mean anomaly at epoch: 55.3724°
orbit number at epoch: 4535

The dashed part of the orbit path shows where the satellite is in the earth's shadow,  

DLR